Location: Crescent
(42.8242°N, 73.7329°W)
Time: 10:48:34
(UTC+00:00)

Tiros 1 - Visible Passes

Search period start: 07 November 2024 00:00
Search period end: 17 November 2024 00:00
Orbit: 622 x 654 km, 48.4° (Epoch: 06 November)

Date Brightness Start Highest point End Pass type
(mag) Time Alt. Az. Time Alt. Az. Time Alt. Az.
07 Nov 10.2 01:09:57 10° WSW 01:10:08 11° WSW 01:10:08 11° WSW visible
07 Nov 9.2 22:12:49 10° SSE 22:14:37 12° SE 22:16:25 10° ESE visible
07 Nov 7.6 23:51:14 10° SW 23:55:07 50° S 23:55:07 50° S visible
08 Nov 8.4 22:33:25 10° SSW 22:37:16 25° SE 22:40:01 15° E visible
09 Nov 8.1 00:14:10 10° WSW 00:17:29 45° WSW 00:17:29 45° WSW visible
09 Nov 7.5 22:55:34 10° SW 23:00:06 49° SE 23:02:18 27° E visible
10 Nov 9.1 00:37:27 10° W 00:39:47 28° W 00:39:47 28° W visible
10 Nov 7.1 23:18:22 10° WSW 23:23:06 87° SSE 23:24:32 46° ENE visible
11 Nov 9.8 01:00:53 10° W 01:02:00 17° WNW 01:02:00 17° WNW visible
11 Nov 7.8 21:59:54 10° SSW 22:04:20 42° SE 22:08:48 10° ENE visible
11 Nov 7.3 23:41:35 10° W 23:46:16 61° NNW 23:46:41 58° N visible
12 Nov 7.2 22:22:34 10° SW 22:27:16 78° SSE 22:31:18 14° ENE visible
13 Nov 8.1 00:04:58 10° W 00:08:47 42° NW 00:08:47 42° NW visible
13 Nov 7.3 22:45:41 10° WSW 22:50:23 67° NNW 22:53:22 22° ENE visible
14 Nov 9.0 00:28:23 10° WNW 00:30:50 27° NW 00:30:50 27° NW visible
14 Nov 7.7 23:09:02 10° W 23:13:37 48° NNW 23:15:23 32° NE visible
15 Nov 9.8 00:51:40 10° WNW 00:52:51 17° WNW 00:52:51 17° WNW visible
15 Nov 7.8 23:32:26 10° WNW 23:36:56 42° N 23:37:23 41° NNE visible
16 Nov 10.3 01:14:48 10° WNW 01:14:51 10° WNW 01:14:51 10° WNW visible
16 Nov 7.6 22:13:04 10° W 22:17:40 51° NNW 22:21:55 12° ENE visible
